Regional Weather Roundup
Issued by NWS

Home | Current Version | Previous Version | Graphics & Text | Print | Product List | Glossary On
Versions: 1 2 3 4 5 6 7 8 9 10 11 12 13 14 15 16 17 18 19 20 21 22 23 24 25 26 27 28 29 30 31 32 33 34 35 36 37 38 39 40 41 42 43 44 45 46 47 48 49 50
000
ASUS43 KLSX 291110
RWRMO

WEATHER SUMMARY FOR MISSOURI
NATIONAL WEATHER SERVICE SPRINGFIELD MO
600 AM CDT FRI JUL 29 2016

NOTE: "FAIR" INDICATES FEW OR NO CLOUDS BELOW 12,000 FEET WITH NO
       SIGNIFICANT WEATHER AND/OR OBSTRUCTIONS TO VISIBILITY.
       CURRENT SKY AND/OR WEATHER CONDITIONS ARE NOT AVAILABLE FOR
       CHILLICOTHE AND FARMINGTON.

MOZ001>031-035>038-043-044-053-054-291200-
...NORTHERN AND WESTERN MISSOURI...

CITY           SKY/WX    TMP DP  RH WIND       PRES   REMARKS
KANSAS CTY INT PTCLDY    69  62  78 NE7       29.97R
KANSAS C DTWN  CLEAR     72  64  76 E7        29.95R
LEE`S SUMMIT   CLEAR     69  66  90 CALM      29.97R
ST JOSEPH      PTCLDY    66  64  93 CALM      29.97R
CHILLICOTHE      N/A     68  64  87 CALM      29.97R
KIRKSVILLE     CLOUDY    65  62  90 N5        29.96S

$$
MOZ066>068-077>081-088>096-101>105-291200-
...SOUTHWEST MISSOURI...

CITY           SKY/WX    TMP DP  RH WIND       PRES   REMARKS
SPRINGFIELD    CLOUDY    71  68  90 CALM      29.95R
JOPLIN         CLEAR     68  66  93 CALM      29.97R
BRANSON        PTCLDY    70  68  94 CALM      29.96R

$$
MOZ032>034-039>042-045>050-055>058-069>072-291200-
...CENTRAL MISSOURI...

CITY           SKY/WX    TMP DP  RH WIND       PRES   REMARKS
COLUMBIA       CLOUDY    69  68  96 CALM      29.94S
JEFFERSON CITY PTCLDY    71  69  93 N3        29.93R
ROLLA          CLEAR     67  66  97 NE3       29.93S
SEDALIA        PTCLDY    72  69  90 CALM      29.95R
WHITEMAN AFB   PTCLDY    70  70 100 NE5       29.93R
OSAGE BEACH    CLEAR     69  68  96 CALM      29.95R FOG

$$
MOZ051-052-059>065-291200-
...EAST CENTRAL MISSOURI...

CITY           SKY/WX    TMP DP  RH WIND       PRES   REMARKS
ST LOUIS INTL  PTCLDY    74  69  85 CALM      29.92F
SPIRIT OF STL  PTCLDY    71  69  93 CALM      29.91S
ST CHARLES     PTCLDY    73  67  81 CALM      29.91S

$$
MOZ072>076-082>087-097>100-106>115-291200-
...SOUTH CENTRAL AND SOUTHEAST MISSOURI...

CITY           SKY/WX    TMP DP  RH WIND       PRES   REMARKS
CAPE GIRARDEAU CLOUDY    72  71  97 CALM      29.91R
FARMINGTON     CLEAR     70  69  97 CALM      29.94R
POPLAR BLUFF   CLEAR     71  69  93 CALM      29.91R
WEST PLAINS    CLEAR     67  64  90 CALM      29.96S

$$




USA.gov is the U.S. government's official web portal to all federal, state and local government web resources and services.